AGILE (31135 NORAD) Tracking and Keplerian Element Data

This shows tracking and keplerian element data for the satellite.

Feedback or suggestion? Click here.




ElementValue
Catalog31135
NameAGILE
Epoch Orbit62496
Epoch Day202.29222357
Epoch Year2018
RAAN238.335
Inclination2.4666
Eccentricity0.0012051
Argument of Perigee96.2004
Mean Anonmoly263.9422
Mean Motion15.30884919
Decay Rate1.992E-05
L11 31135U 07013A 18202.29222357 .00001992 00000-0 28042-4 0 9990
L22 31135 2.4666 238.3350 0012051 96.2004 263.9422 15.30884919624966

Live tracking and technical data element details for AGILE (NORAD 31135). AGILE can be tracked NOW for your location showing map with azimuth and elevation plus other details from your city location.

Track the satellite on the map from your city or location and see movement details for azimuth, elevation, latitude, longitude, range, height, and movement on the map or in text.







IsCatalogInMostPopularTable: catalog: 31135, numindb: 31
Update: records affected: 1



GetName: 31135 AGILE

Hit Count: updated at: Mon, 23 Jul 2018 07:27:01 GMT